Year,Month,Day,Hour,Minute,Value (Times are PST for insolation in W/m^2)
2018,05,07,00,00,0.00
2018,05,07,00,01,0.00
2018,05,07,00,02,0.00
2018,05,07,00,03,0.00
2018,05,07,00,04,0.00
2018,05,07,00,05,0.00
2018,05,07,00,06,0.00
2018,05,07,00,07,0.00
2018,05,07,00,08,0.00
2018,05,07,00,09,0.00
2018,05,07,00,10,0.00
2018,05,07,00,11,0.00
2018,05,07,00,12,0.00
2018,05,07,00,13,0.00
2018,05,07,00,14,0.00
2018,05,07,00,15,0.00
2018,05,07,00,16,0.00
2018,05,07,00,17,0.00
2018,05,07,00,18,0.00
2018,05,07,00,19,0.00
2018,05,07,00,20,0.00
2018,05,07,00,21,0.00
2018,05,07,00,22,0.00
2018,05,07,00,23,0.00
2018,05,07,00,24,0.00
2018,05,07,00,25,0.00
2018,05,07,00,26,0.00
2018,05,07,00,27,0.00
2018,05,07,00,28,0.00
2018,05,07,00,29,0.00
2018,05,07,00,30,0.00
2018,05,07,00,31,0.00
2018,05,07,00,32,0.00
2018,05,07,00,33,0.00
2018,05,07,00,34,0.00
2018,05,07,00,35,0.00
2018,05,07,00,36,0.00
2018,05,07,00,37,0.00
2018,05,07,00,38,0.00
2018,05,07,00,39,0.00
2018,05,07,00,40,0.00
2018,05,07,00,41,0.00
2018,05,07,00,42,0.00
2018,05,07,00,43,0.00
2018,05,07,00,44,0.00
2018,05,07,00,45,0.00
2018,05,07,00,46,0.00
2018,05,07,00,47,0.00
2018,05,07,00,48,0.00
2018,05,07,00,49,0.00
2018,05,07,00,50,0.00
2018,05,07,00,51,0.00
2018,05,07,00,52,0.00
2018,05,07,00,53,0.00
2018,05,07,00,54,0.00
2018,05,07,00,55,0.00
2018,05,07,00,56,0.00
2018,05,07,00,57,0.00
2018,05,07,00,58,0.00
2018,05,07,00,59,0.00
2018,05,07,01,00,0.00
2018,05,07,01,01,0.00
2018,05,07,01,02,0.00
2018,05,07,01,03,0.00
2018,05,07,01,04,0.00
2018,05,07,01,05,0.00
2018,05,07,01,06,0.00
2018,05,07,01,07,0.00
2018,05,07,01,08,0.00
2018,05,07,01,09,0.00
2018,05,07,01,10,0.00
2018,05,07,01,11,0.00
2018,05,07,01,12,0.00
2018,05,07,01,13,0.00
2018,05,07,01,14,0.00
2018,05,07,01,15,0.00
2018,05,07,01,16,0.00
2018,05,07,01,17,0.00
2018,05,07,01,18,0.00
2018,05,07,01,19,0.00
2018,05,07,01,20,0.00
2018,05,07,01,21,0.00
2018,05,07,01,22,0.00
2018,05,07,01,23,0.00
2018,05,07,01,24,0.00
2018,05,07,01,25,0.00
2018,05,07,01,26,0.00
2018,05,07,01,27,0.00
2018,05,07,01,28,0.00
2018,05,07,01,29,0.00
2018,05,07,01,30,0.00
2018,05,07,01,31,0.00
2018,05,07,01,32,0.00
2018,05,07,01,33,0.00
2018,05,07,01,34,0.00
2018,05,07,01,35,0.00
2018,05,07,01,36,0.00
2018,05,07,01,37,0.00
2018,05,07,01,38,0.00
2018,05,07,01,39,0.00
2018,05,07,01,40,0.00
2018,05,07,01,41,0.00
2018,05,07,01,42,0.00
2018,05,07,01,43,0.00
2018,05,07,01,44,0.00
2018,05,07,01,45,0.00
2018,05,07,01,46,0.00
2018,05,07,01,47,0.00
2018,05,07,01,48,0.00
2018,05,07,01,49,0.00
2018,05,07,01,50,0.00
2018,05,07,01,51,0.00
2018,05,07,01,52,0.00
2018,05,07,01,53,0.00
2018,05,07,01,54,0.00
2018,05,07,01,55,0.00
2018,05,07,01,56,0.00
2018,05,07,01,57,0.00
2018,05,07,01,58,0.00
2018,05,07,01,59,0.00
2018,05,07,02,00,0.00
2018,05,07,02,01,0.00
2018,05,07,02,02,0.00
2018,05,07,02,03,0.00
2018,05,07,02,04,0.00
2018,05,07,02,05,0.00
2018,05,07,02,06,0.00
2018,05,07,02,07,0.00
2018,05,07,02,08,0.00
2018,05,07,02,09,0.00
2018,05,07,02,10,0.00
2018,05,07,02,11,0.00
2018,05,07,02,12,0.00
2018,05,07,02,13,0.00
2018,05,07,02,14,0.00
2018,05,07,02,15,0.00
2018,05,07,02,16,0.00
2018,05,07,02,17,0.00
2018,05,07,02,18,0.00
2018,05,07,02,19,0.00
2018,05,07,02,20,0.00
2018,05,07,02,21,0.00
2018,05,07,02,22,0.00
2018,05,07,02,23,0.00
2018,05,07,02,24,0.00
2018,05,07,02,25,0.00
2018,05,07,02,26,0.00
2018,05,07,02,27,0.00
2018,05,07,02,28,0.00
2018,05,07,02,29,0.00
2018,05,07,02,30,0.00
2018,05,07,02,31,0.00
2018,05,07,02,32,0.00
2018,05,07,02,33,0.00
2018,05,07,02,34,0.00
2018,05,07,02,35,0.00
2018,05,07,02,36,0.00
2018,05,07,02,37,0.00
2018,05,07,02,38,0.00
2018,05,07,02,39,0.00
2018,05,07,02,40,0.00
2018,05,07,02,41,0.00
2018,05,07,02,42,0.00
2018,05,07,02,43,0.00
2018,05,07,02,44,0.00
2018,05,07,02,45,0.00
2018,05,07,02,46,0.00
2018,05,07,02,47,0.00
2018,05,07,02,48,0.00
2018,05,07,02,49,0.00
2018,05,07,02,50,0.00
2018,05,07,02,51,0.00
2018,05,07,02,52,0.00
2018,05,07,02,53,0.00
2018,05,07,02,54,0.00
2018,05,07,02,55,0.00
2018,05,07,02,56,0.00
2018,05,07,02,57,0.00
2018,05,07,02,58,0.00
2018,05,07,02,59,0.00
2018,05,07,03,00,0.00
2018,05,07,03,01,0.00
2018,05,07,03,02,0.00
2018,05,07,03,03,0.00
2018,05,07,03,04,0.00
2018,05,07,03,05,0.00
2018,05,07,03,06,0.00
2018,05,07,03,07,0.00
2018,05,07,03,08,0.00
2018,05,07,03,09,0.00
2018,05,07,03,10,0.00
2018,05,07,03,11,0.00
2018,05,07,03,12,0.00
2018,05,07,03,13,0.00
2018,05,07,03,14,0.00
2018,05,07,03,15,0.00
2018,05,07,03,16,0.00
2018,05,07,03,17,0.00
2018,05,07,03,18,0.00
2018,05,07,03,19,0.00
2018,05,07,03,20,0.00
2018,05,07,03,21,0.00
2018,05,07,03,22,0.00
2018,05,07,03,23,0.00
2018,05,07,03,24,0.00
2018,05,07,03,25,0.00
2018,05,07,03,26,0.00
2018,05,07,03,27,0.00
2018,05,07,03,28,0.00
2018,05,07,03,29,0.00
2018,05,07,03,30,0.00
2018,05,07,03,31,0.00
2018,05,07,03,32,0.00
2018,05,07,03,33,0.00
2018,05,07,03,34,0.00
2018,05,07,03,35,0.00
2018,05,07,03,36,0.00
2018,05,07,03,37,0.00
2018,05,07,03,38,0.00
2018,05,07,03,39,0.00
2018,05,07,03,40,0.00
2018,05,07,03,41,0.00
2018,05,07,03,42,0.00
2018,05,07,03,43,0.00
2018,05,07,03,44,0.00
2018,05,07,03,45,0.00
2018,05,07,03,46,0.00
2018,05,07,03,47,0.00
2018,05,07,03,48,0.00
2018,05,07,03,49,0.00
2018,05,07,03,50,0.00
2018,05,07,03,51,0.00
2018,05,07,03,52,0.00
2018,05,07,03,53,0.00
2018,05,07,03,54,0.00
2018,05,07,03,55,0.00
2018,05,07,03,56,0.00
2018,05,07,03,57,0.00
2018,05,07,03,58,0.00
2018,05,07,03,59,0.00
2018,05,07,04,00,0.00
2018,05,07,04,01,0.00
2018,05,07,04,02,0.00
2018,05,07,04,03,0.00
2018,05,07,04,04,0.00
2018,05,07,04,05,0.00
2018,05,07,04,06,0.00
2018,05,07,04,07,0.00
2018,05,07,04,08,0.00
2018,05,07,04,09,0.00
2018,05,07,04,10,0.00
2018,05,07,04,11,0.00
2018,05,07,04,12,0.00
2018,05,07,04,13,0.00
2018,05,07,04,14,0.00
2018,05,07,04,15,0.00
2018,05,07,04,16,0.00
2018,05,07,04,17,0.00
2018,05,07,04,18,0.00
2018,05,07,04,19,0.00
2018,05,07,04,20,0.00
2018,05,07,04,21,0.00
2018,05,07,04,22,0.00
2018,05,07,04,23,0.00
2018,05,07,04,24,0.00
2018,05,07,04,25,0.00
2018,05,07,04,26,0.00
2018,05,07,04,27,0.00
2018,05,07,04,28,0.00
2018,05,07,04,29,0.00
2018,05,07,04,30,0.00
2018,05,07,04,31,0.00
2018,05,07,04,32,0.00
2018,05,07,04,33,0.00
2018,05,07,04,34,0.00
2018,05,07,04,35,0.00
2018,05,07,04,36,0.00
2018,05,07,04,37,0.00
2018,05,07,04,38,0.00
2018,05,07,04,39,0.00
2018,05,07,04,40,0.00
2018,05,07,04,41,0.00
2018,05,07,04,42,0.00
2018,05,07,04,43,0.00
2018,05,07,04,44,0.00
2018,05,07,04,45,0.00
2018,05,07,04,46,0.00
2018,05,07,04,47,0.00
2018,05,07,04,48,0.00
2018,05,07,04,49,0.00
2018,05,07,04,50,0.00
2018,05,07,04,51,0.00
2018,05,07,04,52,0.00
2018,05,07,04,53,0.00
2018,05,07,04,54,0.00
2018,05,07,04,55,0.00
2018,05,07,04,56,0.00
2018,05,07,04,57,0.00
2018,05,07,04,58,0.00
2018,05,07,04,59,0.00
2018,05,07,05,00,0.00
2018,05,07,05,01,0.00
2018,05,07,05,02,0.00
2018,05,07,05,03,0.00
2018,05,07,05,04,0.00
2018,05,07,05,05,0.00
2018,05,07,05,06,0.00
2018,05,07,05,07,0.00
2018,05,07,05,08,0.00
2018,05,07,05,09,0.00
2018,05,07,05,10,0.00
2018,05,07,05,11,0.00
2018,05,07,05,12,0.00
2018,05,07,05,13,0.00
2018,05,07,05,14,0.00
2018,05,07,05,15,0.00
2018,05,07,05,16,0.00
2018,05,07,05,17,0.00
2018,05,07,05,18,0.00
2018,05,07,05,19,0.00
2018,05,07,05,20,0.00
2018,05,07,05,21,0.00
2018,05,07,05,22,0.00
2018,05,07,05,23,0.00
2018,05,07,05,24,0.00
2018,05,07,05,25,0.00
2018,05,07,05,26,0.00
2018,05,07,05,27,0.00
2018,05,07,05,28,0.00
2018,05,07,05,29,0.00
2018,05,07,05,30,0.00
2018,05,07,05,31,0.00
2018,05,07,05,32,0.00
2018,05,07,05,33,0.00
2018,05,07,05,34,0.00
2018,05,07,05,35,0.00
2018,05,07,05,36,0.00
2018,05,07,05,37,0.00
2018,05,07,05,38,0.00
2018,05,07,05,39,0.00
2018,05,07,05,40,0.00
2018,05,07,05,41,0.00
2018,05,07,05,42,0.00
2018,05,07,05,43,0.00
2018,05,07,05,44,0.00
2018,05,07,05,45,0.00
2018,05,07,05,46,0.00
2018,05,07,05,47,0.00
2018,05,07,05,48,0.00
2018,05,07,05,49,0.00
2018,05,07,05,50,3.30
2018,05,07,05,51,5.00
2018,05,07,05,52,5.00
2018,05,07,05,53,5.00
2018,05,07,05,54,5.00
2018,05,07,05,55,5.00
2018,05,07,05,56,6.00
2018,05,07,05,57,7.00
2018,05,07,05,58,7.00
2018,05,07,05,59,7.00
2018,05,07,06,00,7.00
2018,05,07,06,01,7.00
2018,05,07,06,02,7.80
2018,05,07,06,03,9.00
2018,05,07,06,04,9.00
2018,05,07,06,05,9.00
2018,05,07,06,06,10.80
2018,05,07,06,07,11.00
2018,05,07,06,08,11.00
2018,05,07,06,09,11.00
2018,05,07,06,10,11.00
2018,05,07,06,11,11.70
2018,05,07,06,12,12.00
2018,05,07,06,13,12.10
2018,05,07,06,14,14.00
2018,05,07,06,15,14.60
2018,05,07,06,16,16.00
2018,05,07,06,17,16.00
2018,05,07,06,18,17.30
2018,05,07,06,19,18.00
2018,05,07,06,20,18.90
2018,05,07,06,21,19.30
2018,05,07,06,22,21.60
2018,05,07,06,23,23.00
2018,05,07,06,24,24.00
2018,05,07,06,25,25.00
2018,05,07,06,26,25.00
2018,05,07,06,27,25.90
2018,05,07,06,28,26.00
2018,05,07,06,29,26.00
2018,05,07,06,30,26.00
2018,05,07,06,31,27.00
2018,05,07,06,32,28.00
2018,05,07,06,33,29.60
2018,05,07,06,34,31.80
2018,05,07,06,35,32.20
2018,05,07,06,36,33.00
2018,05,07,06,37,33.80
2018,05,07,06,38,35.00
2018,05,07,06,39,35.00
2018,05,07,06,40,35.00
2018,05,07,06,41,35.00
2018,05,07,06,42,35.00
2018,05,07,06,43,35.60
2018,05,07,06,44,37.80
2018,05,07,06,45,39.60
2018,05,07,06,46,41.30
2018,05,07,06,47,43.60
2018,05,07,06,48,46.70
2018,05,07,06,49,47.30
2018,05,07,06,50,49.60
2018,05,07,06,51,51.00
2018,05,07,06,52,51.00
2018,05,07,06,53,51.00
2018,05,07,06,54,51.00
2018,05,07,06,55,51.00
2018,05,07,06,56,51.30
2018,05,07,06,57,53.30
2018,05,07,06,58,54.00
2018,05,07,06,59,53.40
2018,05,07,07,00,51.70
2018,05,07,07,01,51.00
2018,05,07,07,02,61.60
2018,05,07,07,03,48.70
2018,05,07,07,04,47.00
2018,05,07,07,05,48.70
2018,05,07,07,06,53.80
2018,05,07,07,07,53.90
2018,05,07,07,08,47.50
2018,05,07,07,09,44.10
2018,05,07,07,10,40.30
2018,05,07,07,11,42.00
2018,05,07,07,12,42.00
2018,05,07,07,13,42.00
2018,05,07,07,14,44.70
2018,05,07,07,15,44.50
2018,05,07,07,16,56.00
2018,05,07,07,17,97.30
2018,05,07,07,18,111.80
2018,05,07,07,19,83.50
2018,05,07,07,20,56.60
2018,05,07,07,21,51.00
2018,05,07,07,22,45.40
2018,05,07,07,23,42.40
2018,05,07,07,24,52.00
2018,05,07,07,25,80.30
2018,05,07,07,26,86.10
2018,05,07,07,27,83.60
2018,05,07,07,28,75.50
2018,05,07,07,29,63.70
2018,05,07,07,30,76.30
2018,05,07,07,31,113.70
2018,05,07,07,32,109.20
2018,05,07,07,33,82.30
2018,05,07,07,34,84.00
2018,05,07,07,35,99.60
2018,05,07,07,36,120.90
2018,05,07,07,37,156.80
2018,05,07,07,38,184.30
2018,05,07,07,39,153.20
2018,05,07,07,40,135.00
2018,05,07,07,41,132.60
2018,05,07,07,42,117.50
2018,05,07,07,43,135.40
2018,05,07,07,44,188.60
2018,05,07,07,45,250.00
2018,05,07,07,46,262.80
2018,05,07,07,47,265.80
2018,05,07,07,48,269.10
2018,05,07,07,49,271.70
2018,05,07,07,50,275.20
2018,05,07,07,51,277.90
2018,05,07,07,52,279.70
2018,05,07,07,53,283.00
2018,05,07,07,54,284.70
2018,05,07,07,55,287.50
2018,05,07,07,56,289.30
2018,05,07,07,57,291.60
2018,05,07,07,58,293.90
2018,05,07,07,59,297.30
2018,05,07,08,00,300.40
2018,05,07,08,01,304.90
2018,05,07,08,02,307.60
2018,05,07,08,03,310.30
2018,05,07,08,04,314.20
2018,05,07,08,05,316.00
2018,05,07,08,06,318.70
2018,05,07,08,07,322.30
2018,05,07,08,08,324.70
2018,05,07,08,09,328.00
2018,05,07,08,10,331.00
2018,05,07,08,11,335.20
2018,05,07,08,12,337.90
2018,05,07,08,13,339.70
2018,05,07,08,14,343.60
2018,05,07,08,15,346.20
2018,05,07,08,16,349.10
2018,05,07,08,17,351.40
2018,05,07,08,18,354.30
2018,05,07,08,19,356.90
2018,05,07,08,20,360.30
2018,05,07,08,21,363.10
2018,05,07,08,22,367.20
2018,05,07,08,23,371.20
2018,05,07,08,24,373.70
2018,05,07,08,25,375.50
2018,05,07,08,26,379.60
2018,05,07,08,27,381.70
2018,05,07,08,28,385.90
2018,05,07,08,29,388.80
2018,05,07,08,30,391.00
2018,05,07,08,31,394.60
2018,05,07,08,32,396.80
2018,05,07,08,33,400.90
2018,05,07,08,34,403.40
2018,05,07,08,35,406.60
2018,05,07,08,36,409.20
2018,05,07,08,37,412.10
2018,05,07,08,38,415.70
2018,05,07,08,39,417.80
2018,05,07,08,40,421.70
2018,05,07,08,41,425.30
2018,05,07,08,42,427.60
2018,05,07,08,43,430.30
2018,05,07,08,44,433.00
2018,05,07,08,45,436.60
2018,05,07,08,46,438.80
2018,05,07,08,47,442.70
2018,05,07,08,48,446.30
2018,05,07,08,49,448.60
2018,05,07,08,50,450.80
2018,05,07,08,51,453.00
2018,05,07,08,52,456.00
2018,05,07,08,53,460.20
2018,05,07,08,54,462.10
2018,05,07,08,55,466.50
2018,05,07,08,56,469.60
2018,05,07,08,57,471.80
2018,05,07,08,58,474.60
2018,05,07,08,59,478.60
2018,05,07,09,00,481.60
2018,05,07,09,01,483.10
2018,05,07,09,02,487.50
2018,05,07,09,03,490.60
2018,05,07,09,04,493.60
2018,05,07,09,05,497.60
2018,05,07,09,06,500.30
2018,05,07,09,07,503.40
2018,05,07,09,08,504.10
2018,05,07,09,09,508.60
2018,05,07,09,10,512.30
2018,05,07,09,11,513.80
2018,05,07,09,12,516.10
2018,05,07,09,13,519.00
2018,05,07,09,14,523.20
2018,05,07,09,15,525.80
2018,05,07,09,16,527.60
2018,05,07,09,17,531.60
2018,05,07,09,18,534.20
2018,05,07,09,19,536.00
2018,05,07,09,20,538.60
2018,05,07,09,21,540.80
2018,05,07,09,22,542.90
2018,05,07,09,23,547.20
2018,05,07,09,24,549.10
2018,05,07,09,25,552.80
2018,05,07,09,26,554.60
2018,05,07,09,27,557.70
2018,05,07,09,28,560.60
2018,05,07,09,29,562.90
2018,05,07,09,30,566.70
2018,05,07,09,31,570.30
2018,05,07,09,32,572.70
2018,05,07,09,33,576.10
2018,05,07,09,34,577.70
2018,05,07,09,35,578.00
2018,05,07,09,36,581.70
2018,05,07,09,37,582.90
2018,05,07,09,38,587.60
2018,05,07,09,39,589.80
2018,05,07,09,40,591.50
2018,05,07,09,41,594.60
2018,05,07,09,42,596.00
2018,05,07,09,43,598.10
2018,05,07,09,44,601.40
2018,05,07,09,45,603.80
2018,05,07,09,46,606.00
2018,05,07,09,47,607.10
2018,05,07,09,48,610.60
2018,05,07,09,49,614.40
2018,05,07,09,50,615.40
2018,05,07,09,51,621.00
2018,05,07,09,52,621.30
2018,05,07,09,53,623.70
2018,05,07,09,54,627.10
2018,05,07,09,55,628.70
2018,05,07,09,56,632.20
2018,05,07,09,57,634.90
2018,05,07,09,58,636.70
2018,05,07,09,59,640.60
2018,05,07,10,00,642.00
2018,05,07,10,01,642.60
2018,05,07,10,02,645.80
2018,05,07,10,03,649.40
2018,05,07,10,04,651.90
2018,05,07,10,05,654.00
2018,05,07,10,06,655.60
2018,05,07,10,07,659.90
2018,05,07,10,08,661.00
2018,05,07,10,09,662.30
2018,05,07,10,10,665.40
2018,05,07,10,11,669.60
2018,05,07,10,12,670.50
2018,05,07,10,13,673.60
2018,05,07,10,14,675.80
2018,05,07,10,15,678.60
2018,05,07,10,16,680.00
2018,05,07,10,17,681.60
2018,05,07,10,18,683.90
2018,05,07,10,19,686.40
2018,05,07,10,20,689.00
2018,05,07,10,21,689.00
2018,05,07,10,22,691.20
2018,05,07,10,23,695.00
2018,05,07,10,24,697.60
2018,05,07,10,25,699.90
2018,05,07,10,26,701.30
2018,05,07,10,27,703.00
2018,05,07,10,28,703.80
2018,05,07,10,29,706.10
2018,05,07,10,30,707.70
2018,05,07,10,31,711.20
2018,05,07,10,32,714.80
2018,05,07,10,33,715.30
2018,05,07,10,34,717.60
2018,05,07,10,35,720.20
2018,05,07,10,36,723.10
2018,05,07,10,37,722.60
2018,05,07,10,38,726.70
2018,05,07,10,39,728.00
2018,05,07,10,40,728.50
2018,05,07,10,41,731.60
2018,05,07,10,42,734.70
2018,05,07,10,43,737.00
2018,05,07,10,44,739.00
2018,05,07,10,45,740.00
2018,05,07,10,46,741.90
2018,05,07,10,47,744.00
2018,05,07,10,48,744.30
2018,05,07,10,49,745.80
2018,05,07,10,50,748.10
2018,05,07,10,51,749.00
2018,05,07,10,52,751.40
2018,05,07,10,53,753.80
2018,05,07,10,54,754.30
2018,05,07,10,55,756.90
2018,05,07,10,56,759.80
2018,05,07,10,57,762.10
2018,05,07,10,58,765.00
2018,05,07,10,59,766.00
2018,05,07,11,00,767.90
2018,05,07,11,01,770.50
2018,05,07,11,02,773.60
2018,05,07,11,03,775.80
2018,05,07,11,04,777.00
2018,05,07,11,05,777.00
2018,05,07,11,06,778.60
2018,05,07,11,07,780.00
2018,05,07,11,08,782.30
2018,05,07,11,09,784.60
2018,05,07,11,10,786.00
2018,05,07,11,11,787.10
2018,05,07,11,12,790.00
2018,05,07,11,13,789.40
2018,05,07,11,14,792.50
2018,05,07,11,15,791.70
2018,05,07,11,16,795.00
2018,05,07,11,17,796.20
2018,05,07,11,18,796.90
2018,05,07,11,19,797.40
2018,05,07,11,20,796.40
2018,05,07,11,21,801.70
2018,05,07,11,22,803.00
2018,05,07,11,23,803.60
2018,05,07,11,24,805.00
2018,05,07,11,25,806.10
2018,05,07,11,26,807.00
2018,05,07,11,27,808.60
2018,05,07,11,28,809.00
2018,05,07,11,29,810.30
2018,05,07,11,30,812.60
2018,05,07,11,31,814.00
2018,05,07,11,32,815.10
2018,05,07,11,33,816.70
2018,05,07,11,34,817.00
2018,05,07,11,35,818.90
2018,05,07,11,36,821.00
2018,05,07,11,37,821.00
2018,05,07,11,38,822.30
2018,05,07,11,39,824.00
2018,05,07,11,40,825.30
2018,05,07,11,41,826.00
2018,05,07,11,42,827.80
2018,05,07,11,43,828.50
2018,05,07,11,44,830.70
2018,05,07,11,45,830.00
2018,05,07,11,46,831.60
2018,05,07,11,47,833.00
2018,05,07,11,48,836.10
2018,05,07,11,49,837.00
2018,05,07,11,50,837.20
2018,05,07,11,51,838.00
2018,05,07,11,52,838.00
2018,05,07,11,53,839.10
2018,05,07,11,54,840.00
2018,05,07,11,55,841.60
2018,05,07,11,56,842.10
2018,05,07,11,57,844.00
2018,05,07,11,58,844.00
2018,05,07,11,59,844.00
2018,05,07,12,00,844.00
2018,05,07,12,01,845.30
2018,05,07,12,02,846.80
2018,05,07,12,03,848.80
2018,05,07,12,04,849.30
2018,05,07,12,05,851.60
2018,05,07,12,06,853.00
2018,05,07,12,07,853.00
2018,05,07,12,08,853.70
2018,05,07,12,09,854.00
2018,05,07,12,10,853.20
2018,05,07,12,11,857.30
2018,05,07,12,12,855.90
2018,05,07,12,13,860.00
2018,05,07,12,14,860.50
2018,05,07,12,15,860.30
2018,05,07,12,16,862.40
2018,05,07,12,17,861.20
2018,05,07,12,18,861.30
2018,05,07,12,19,863.60
2018,05,07,12,20,864.10
2018,05,07,12,21,863.00
2018,05,07,12,22,865.80
2018,05,07,12,23,863.90
2018,05,07,12,24,864.90
2018,05,07,12,25,867.00
2018,05,07,12,26,866.40
2018,05,07,12,27,865.80
2018,05,07,12,28,865.90
2018,05,07,12,29,867.00
2018,05,07,12,30,868.00
2018,05,07,12,31,867.10
2018,05,07,12,32,868.30
2018,05,07,12,33,870.00
2018,05,07,12,34,870.00
2018,05,07,12,35,871.10
2018,05,07,12,36,870.70
2018,05,07,12,37,871.60
2018,05,07,12,38,871.90
2018,05,07,12,39,870.30
2018,05,07,12,40,872.60
2018,05,07,12,41,874.00
2018,05,07,12,42,872.90
2018,05,07,12,43,873.40
2018,05,07,12,44,870.80
2018,05,07,12,45,873.80
2018,05,07,12,46,876.00
2018,05,07,12,47,871.10
2018,05,07,12,48,874.40
2018,05,07,12,49,873.40
2018,05,07,12,50,872.00
2018,05,07,12,51,876.00
2018,05,07,12,52,875.10
2018,05,07,12,53,874.80
2018,05,07,12,54,874.90
2018,05,07,12,55,875.70
2018,05,07,12,56,874.60
2018,05,07,12,57,875.00
2018,05,07,12,58,875.00
2018,05,07,12,59,876.80
2018,05,07,13,00,877.00
2018,05,07,13,01,877.00
2018,05,07,13,02,877.90
2018,05,07,13,03,877.90
2018,05,07,13,04,878.40
2018,05,07,13,05,879.00
2018,05,07,13,06,879.00
2018,05,07,13,07,878.70
2018,05,07,13,08,877.60
2018,05,07,13,09,879.00
2018,05,07,13,10,879.00
2018,05,07,13,11,876.30
2018,05,07,13,12,876.60
2018,05,07,13,13,877.10
2018,05,07,13,14,878.70
2018,05,07,13,15,877.00
2018,05,07,13,16,877.00
2018,05,07,13,17,877.00
2018,05,07,13,18,877.00
2018,05,07,13,19,878.60
2018,05,07,13,20,877.10
2018,05,07,13,21,877.00
2018,05,07,13,22,876.40
2018,05,07,13,23,875.80
2018,05,07,13,24,877.00
2018,05,07,13,25,875.70
2018,05,07,13,26,875.00
2018,05,07,13,27,876.80
2018,05,07,13,28,875.00
2018,05,07,13,29,875.00
2018,05,07,13,30,874.60
2018,05,07,13,31,874.00
2018,05,07,13,32,874.00
2018,05,07,13,33,874.00
2018,05,07,13,34,873.90
2018,05,07,13,35,872.30
2018,05,07,13,36,873.40
2018,05,07,13,37,872.00
2018,05,07,13,38,872.00
2018,05,07,13,39,872.00
2018,05,07,13,40,870.40
2018,05,07,13,41,871.90
2018,05,07,13,42,871.60
2018,05,07,13,43,870.00
2018,05,07,13,44,869.20
2018,05,07,13,45,869.10
2018,05,07,13,46,868.70
2018,05,07,13,47,868.00
2018,05,07,13,48,869.90
2018,05,07,13,49,869.30
2018,05,07,13,50,865.60
2018,05,07,13,51,866.20
2018,05,07,13,52,865.00
2018,05,07,13,53,865.00
2018,05,07,13,54,863.40
2018,05,07,13,55,861.10
2018,05,07,13,56,861.00
2018,05,07,13,57,861.00
2018,05,07,13,58,860.60
2018,05,07,13,59,860.00
2018,05,07,14,00,860.00
2018,05,07,14,01,858.40
2018,05,07,14,02,856.10
2018,05,07,14,03,856.00
2018,05,07,14,04,856.00
2018,05,07,14,05,856.00
2018,05,07,14,06,854.90
2018,05,07,14,07,854.00
2018,05,07,14,08,854.00
2018,05,07,14,09,853.10
2018,05,07,14,10,852.30
2018,05,07,14,11,849.60
2018,05,07,14,12,851.00
2018,05,07,14,13,848.80
2018,05,07,14,14,847.00
2018,05,07,14,15,847.00
2018,05,07,14,16,845.80
2018,05,07,14,17,842.40
2018,05,07,14,18,844.00
2018,05,07,14,19,843.20
2018,05,07,14,20,842.00
2018,05,07,14,21,840.70
2018,05,07,14,22,838.40
2018,05,07,14,23,838.00
2018,05,07,14,24,837.80
2018,05,07,14,25,837.00
2018,05,07,14,26,837.40
2018,05,07,14,27,837.40
2018,05,07,14,28,834.30
2018,05,07,14,29,833.00
2018,05,07,14,30,831.30
2018,05,07,14,31,832.50
2018,05,07,14,32,830.00
2018,05,07,14,33,829.20
2018,05,07,14,34,828.00
2018,05,07,14,35,828.00
2018,05,07,14,36,824.80
2018,05,07,14,37,825.90
2018,05,07,14,38,825.60
2018,05,07,14,39,823.00
2018,05,07,14,40,821.30
2018,05,07,14,41,820.10
2018,05,07,14,42,819.70
2018,05,07,14,43,817.40
2018,05,07,14,44,814.30
2018,05,07,14,45,815.30
2018,05,07,14,46,811.40
2018,05,07,14,47,810.00
2018,05,07,14,48,809.40
2018,05,07,14,49,809.70
2018,05,07,14,50,807.60
2018,05,07,14,51,805.20
2018,05,07,14,52,804.70
2018,05,07,14,53,802.70
2018,05,07,14,54,802.00
2018,05,07,14,55,800.90
2018,05,07,14,56,798.70
2018,05,07,14,57,796.40
2018,05,07,14,58,796.00
2018,05,07,14,59,794.70
2018,05,07,15,00,792.40
2018,05,07,15,01,790.10
2018,05,07,15,02,789.00
2018,05,07,15,03,788.30
2018,05,07,15,04,786.40
2018,05,07,15,05,787.80
2018,05,07,15,06,785.30
2018,05,07,15,07,782.00
2018,05,07,15,08,781.20
2018,05,07,15,09,779.40
2018,05,07,15,10,776.30
2018,05,07,15,11,775.00
2018,05,07,15,12,776.70
2018,05,07,15,13,774.70
2018,05,07,15,14,771.60
2018,05,07,15,15,767.20
2018,05,07,15,16,766.00
2018,05,07,15,17,766.00
2018,05,07,15,18,765.20
2018,05,07,15,19,761.40
2018,05,07,15,20,760.70
2018,05,07,15,21,758.70
2018,05,07,15,22,757.20
2018,05,07,15,23,756.00
2018,05,07,15,24,753.30
2018,05,07,15,25,752.00
2018,05,07,15,26,750.90
2018,05,07,15,27,747.00
2018,05,07,15,28,745.40
2018,05,07,15,29,742.90
2018,05,07,15,30,741.90
2018,05,07,15,31,740.00
2018,05,07,15,32,738.40
2018,05,07,15,33,737.80
2018,05,07,15,34,733.00
2018,05,07,15,35,732.40
2018,05,07,15,36,731.90
2018,05,07,15,37,729.10
2018,05,07,15,38,726.00
2018,05,07,15,39,722.80
2018,05,07,15,40,721.10
2018,05,07,15,41,720.30
2018,05,07,15,42,717.00
2018,05,07,15,43,716.10
2018,05,07,15,44,714.40
2018,05,07,15,45,712.60
2018,05,07,15,46,708.80
2018,05,07,15,47,708.00
2018,05,07,15,48,706.70
2018,05,07,15,49,705.60
2018,05,07,15,50,704.50
2018,05,07,15,51,701.00
2018,05,07,15,52,699.00
2018,05,07,15,53,696.40
2018,05,07,15,54,693.20
2018,05,07,15,55,692.70
2018,05,07,15,56,690.40
2018,05,07,15,57,688.20
2018,05,07,15,58,685.40
2018,05,07,15,59,681.40
2018,05,07,16,00,679.20
2018,05,07,16,01,677.10
2018,05,07,16,02,676.30
2018,05,07,16,03,673.00
2018,05,07,16,04,672.20
2018,05,07,16,05,669.30
2018,05,07,16,06,666.70
2018,05,07,16,07,666.00
2018,05,07,16,08,661.60
2018,05,07,16,09,662.00
2018,05,07,16,10,656.70
2018,05,07,16,11,656.00
2018,05,07,16,12,654.90
2018,05,07,16,13,651.40
2018,05,07,16,14,649.20
2018,05,07,16,15,647.00
2018,05,07,16,16,643.30
2018,05,07,16,17,644.10
2018,05,07,16,18,641.20
2018,05,07,16,19,638.90
2018,05,07,16,20,636.00
2018,05,07,16,21,633.40
2018,05,07,16,22,631.10
2018,05,07,16,23,630.10
2018,05,07,16,24,624.80
2018,05,07,16,25,622.00
2018,05,07,16,26,621.50
2018,05,07,16,27,618.40
2018,05,07,16,28,615.40
2018,05,07,16,29,613.10
2018,05,07,16,30,611.60
2018,05,07,16,31,608.80
2018,05,07,16,32,605.60
2018,05,07,16,33,603.90
2018,05,07,16,34,601.70
2018,05,07,16,35,599.40
2018,05,07,16,36,597.90
2018,05,07,16,37,593.50
2018,05,07,16,38,590.40
2018,05,07,16,39,588.10
2018,05,07,16,40,585.40
2018,05,07,16,41,582.70
2018,05,07,16,42,580.40
2018,05,07,16,43,577.90
2018,05,07,16,44,574.70
2018,05,07,16,45,572.40
2018,05,07,16,46,569.80
2018,05,07,16,47,568.00
2018,05,07,16,48,566.60
2018,05,07,16,49,563.60
2018,05,07,16,50,561.00
2018,05,07,16,51,558.30
2018,05,07,16,52,554.70
2018,05,07,16,53,553.20
2018,05,07,16,54,549.80
2018,05,07,16,55,548.00
2018,05,07,16,56,544.10
2018,05,07,16,57,541.20
2018,05,07,16,58,539.70
2018,05,07,16,59,536.80
2018,05,07,17,00,534.00
2018,05,07,17,01,531.10
2018,05,07,17,02,527.70
2018,05,07,17,03,526.20
2018,05,07,17,04,524.00
2018,05,07,17,05,519.80
2018,05,07,17,06,518.40
2018,05,07,17,07,515.30
2018,05,07,17,08,512.40
2018,05,07,17,09,509.20
2018,05,07,17,10,508.00